sat.trackr.live / text

‹ back to catalog

STARLINK-2036

NORAD 47652 · 2021-012AJ

PAYLOAD ACTIVE UNKNOWN

§ Identity

Operator
Country
US
Launch date
2021-02-16
Launch site
AFETR
Launch vehicle
Mass (kg)
RCS (m²)

Purposes: comms

External: N2YO · Heavens-Above · Gunter

§ Orbital elements

Epoch: 2026-08-30T13:08:37.868064Z

Period
88.12 min
Inclination
53.1391°
Eccentricity
0.0007122
Mean motion
16.34072126 rev/d
Perigee alt
176.9 km
Apogee alt
186.3 km
Semi-major
6,559.8 km
B*
9.0583e-4
RAAN
291.2671°
Arg perigee
340.0766°
Mean anomaly
20.0000°
Rev number
30,733

§ Raw data

STARLINK-20361 47652U 21012AJ  26242.54766051  .06406906  12274-4  90583-3 0  99992 47652  53.1391 291.2671 0007122 340.0766  20.0000 16.34072126307334

JSON: /api/v1/satellites/47652 · /tle

For live sub-satellite position, see the globe view (requires WebGL).

§ Visibility from observer

Set your observer location to see the next 7 days of passes ≥ 10°. The values pass through the URL so the page stays shareable.

No JS? Fill the form by hand. The geolocation button needs JavaScript.